TimeEDT,TemperatureF,Dew PointF,Humidity,Sea Level PressureIn,VisibilityMPH,Wind Direction,Wind SpeedMPH,Gust SpeedMPH,PrecipitationIn,Events,Conditions,WindDirDegrees,DateUTC
12:53 AM,71.6,64.4,78,30.19,10.0,East,9.2,-,N/A,,Clear,80,2012-10-14 04:53:00
1:53 AM,70.0,64.0,81,30.19,10.0,East,9.2,-,N/A,,Clear,80,2012-10-14 05:53:00
2:53 AM,69.1,64.0,84,30.17,10.0,East,6.9,-,N/A,,Clear,90,2012-10-14 06:53:00
3:53 AM,68.0,64.0,87,30.16,10.0,ENE,6.9,-,N/A,,Clear,70,2012-10-14 07:53:00
4:53 AM,68.0,64.0,87,30.14,10.0,ENE,6.9,-,N/A,,Clear,70,2012-10-14 08:53:00
5:53 AM,68.0,63.0,84,30.15,10.0,ENE,4.6,-,N/A,,Scattered Clouds,60,2012-10-14 09:53:00
6:53 AM,66.9,63.0,87,30.15,10.0,ENE,4.6,-,N/A,,Scattered Clouds,70,2012-10-14 10:53:00
7:53 AM,66.9,63.0,87,30.15,10.0,ENE,3.5,-,N/A,,Clear,70,2012-10-14 11:53:00
8:53 AM,69.1,64.0,84,30.16,10.0,East,6.9,-,N/A,,Clear,80,2012-10-14 12:53:00
9:53 AM,73.9,64.9,73,30.15,10.0,ENE,4.6,-,N/A,,Clear,70,2012-10-14 13:53:00
10:53 AM,78.1,64.9,64,30.16,10.0,East,6.9,-,N/A,,Clear,80,2012-10-14 14:53:00
11:53 AM,82.0,64.0,54,30.16,10.0,East,8.1,-,N/A,,Scattered Clouds,100,2012-10-14 15:53:00
12:53 PM,84.0,62.1,47,30.15,10.0,SSE,8.1,-,N/A,,Scattered Clouds,150,2012-10-14 16:53:00
1:53 PM,84.9,62.1,46,30.12,10.0,ESE,4.6,-,N/A,,Scattered Clouds,110,2012-10-14 17:53:00
2:53 PM,86.0,59.0,40,30.09,10.0,South,8.1,-,N/A,,Mostly Cloudy,190,2012-10-14 18:53:00
3:53 PM,87.8,57.2,35,30.08,10.0,SSW,6.9,-,N/A,,Mostly Cloudy,210,2012-10-14 19:53:00
4:53 PM,84.9,61.0,44,30.06,10.0,North,5.8,-,N/A,,Scattered Clouds,350,2012-10-14 20:53:00
5:53 PM,86.0,61.0,43,30.05,10.0,Variable,3.5,-,N/A,,Partly Cloudy,0,2012-10-14 21:53:00
6:53 PM,82.0,60.1,47,30.05,10.0,Calm,Calm,-,N/A,,Partly Cloudy,0,2012-10-14 22:53:00
7:53 PM,75.9,64.0,67,30.04,10.0,Calm,Calm,-,N/A,,Clear,0,2012-10-14 23:53:00
8:53 PM,73.0,63.0,71,30.04,10.0,Calm,Calm,-,N/A,,Clear,0,2012-10-15 00:53:00
9:53 PM,71.1,63.0,75,30.03,10.0,Calm,Calm,-,N/A,,Clear,0,2012-10-15 01:53:00
10:53 PM,69.1,64.0,84,30.04,10.0,East,4.6,-,N/A,,Clear,100,2012-10-15 02:53:00
11:53 PM,66.0,62.1,87,30.04,10.0,Calm,Calm,-,N/A,,Clear,0,2012-10-15 03:53:00